TimeCET,TemperatureF,Dew PointF,Humidity,Sea Level PressureIn,VisibilityMPH,Wind Direction,Wind SpeedMPH,Gust SpeedMPH,PrecipitationIn,Events,Conditions,WindDirDegrees,DateUTC
12:20 AM,48.2,46.4,93,29.98,4.3,South,4.6,-,N/A,Rain,Light Rain,190,2013-02-15 23:20:00
12:50 AM,48.2,44.6,87,29.98,3.7,SSE,3.5,-,N/A,Rain,Light Rain,160,2013-02-15 23:50:00
1:20 AM,46.4,44.6,93,29.98,3.7,Calm,Calm,-,N/A,,Mostly Cloudy,0,2013-02-16 00:20:00
1:50 AM,46.4,44.6,93,29.98,3.7,NNE,3.5,-,N/A,,Drizzle,30,2013-02-16 00:50:00
2:20 AM,46.4,44.6,93,29.98,3.7,NNE,3.5,-,N/A,,Drizzle,30,2013-02-16 01:20:00
2:50 AM,46.4,42.8,87,29.98,3.7,East,3.5,-,N/A,,Drizzle,80,2013-02-16 01:50:00
3:20 AM,44.6,41.0,87,29.98,4.3,ENE,5.8,-,N/A,,Mostly Cloudy,60,2013-02-16 02:20:00
3:50 AM,44.6,41.0,87,29.95,4.3,NNE,5.8,-,N/A,,Mostly Cloudy,30,2013-02-16 02:50:00
4:20 AM,46.4,42.8,87,29.95,4.3,NNE,6.9,-,N/A,,Mostly Cloudy,20,2013-02-16 03:20:00
4:50 AM,44.6,41.0,87,29.95,4.3,North,5.8,-,N/A,,Mostly Cloudy,10,2013-02-16 03:50:00
5:20 AM,44.6,41.0,87,29.95,4.3,North,5.8,-,N/A,,Mostly Cloudy,10,2013-02-16 04:20:00
5:50 AM,44.6,41.0,87,29.95,5.0,North,6.9,-,N/A,,Mostly Cloudy,10,2013-02-16 04:50:00
6:20 AM,44.6,39.2,81,29.98,5.0,NE,5.8,-,N/A,,Mostly Cloudy,40,2013-02-16 05:20:00
6:50 AM,44.6,39.2,81,29.98,6.2,Variable,2.3,-,N/A,,Mostly Cloudy,0,2013-02-16 05:50:00
7:20 AM,44.6,39.2,81,29.98,6.2,NNE,5.8,-,N/A,,Mostly Cloudy,20,2013-02-16 06:20:00
7:50 AM,44.6,39.2,81,29.98,6.2,NNE,4.6,-,N/A,,Mostly Cloudy,20,2013-02-16 06:50:00
8:20 AM,48.2,41.0,76,29.98,6.2,NNE,4.6,-,N/A,,Scattered Clouds,30,2013-02-16 07:20:00
8:50 AM,48.2,39.2,71,30.01,6.2,NNE,4.6,-,N/A,,Partly Cloudy,20,2013-02-16 07:50:00
9:20 AM,50.0,41.0,71,30.01,6.2,NE,6.9,-,N/A,,Partly Cloudy,40,2013-02-16 08:20:00
9:50 AM,51.8,39.2,62,30.01,6.2,ENE,9.2,-,N/A,,Partly Cloudy,60,2013-02-16 08:50:00
10:20 AM,51.8,39.2,62,30.01,6.2,ENE,8.1,-,N/A,,Partly Cloudy,70,2013-02-16 09:20:00
10:50 AM,51.8,39.2,62,30.01,6.2,ENE,6.9,-,N/A,,Partly Cloudy,60,2013-02-16 09:50:00
11:20 AM,53.6,39.2,58,30.04,6.2,ENE,8.1,-,N/A,,Partly Cloudy,70,2013-02-16 10:20:00
11:50 AM,53.6,41.0,62,30.01,6.2,ENE,6.9,-,N/A,,Partly Cloudy,60,2013-02-16 10:50:00
12:20 PM,53.6,39.2,58,30.01,6.2,NE,9.2,-,N/A,,Partly Cloudy,40,2013-02-16 11:20:00
12:50 PM,55.4,39.2,54,30.01,6.2,NE,8.1,-,N/A,,Partly Cloudy,50,2013-02-16 11:50:00
1:20 PM,53.6,39.2,58,30.01,6.2,NE,8.1,-,N/A,,Partly Cloudy,40,2013-02-16 12:20:00
1:50 PM,55.4,37.4,51,30.01,6.2,NE,9.2,-,N/A,,Partly Cloudy,50,2013-02-16 12:50:00
2:20 PM,55.4,39.2,54,30.01,-9999.0,ENE,8.1,-,N/A,,Unknown,60,2013-02-16 13:20:00
2:50 PM,53.6,37.4,54,30.01,6.2,NE,11.5,-,N/A,,Partly Cloudy,40,2013-02-16 13:50:00
3:20 PM,53.6,39.2,58,30.01,6.2,ENE,8.1,-,N/A,,Partly Cloudy,60,2013-02-16 14:20:00
3:50 PM,53.6,39.2,58,30.01,6.2,ENE,8.1,-,N/A,,Partly Cloudy,70,2013-02-16 14:50:00
4:20 PM,53.6,37.4,54,30.01,6.2,East,8.1,-,N/A,,Scattered Clouds,80,2013-02-16 15:20:00
4:50 PM,51.8,37.4,58,30.01,6.2,East,6.9,-,N/A,,Scattered Clouds,80,2013-02-16 15:50:00
5:20 PM,51.8,37.4,58,30.01,6.2,East,4.6,-,N/A,,Scattered Clouds,90,2013-02-16 16:20:00
5:50 PM,51.8,37.4,58,30.04,6.2,East,3.5,-,N/A,,Scattered Clouds,80,2013-02-16 16:50:00
6:20 PM,51.8,37.4,58,30.04,6.2,ENE,4.6,-,N/A,,Scattered Clouds,70,2013-02-16 17:20:00
6:50 PM,50.0,37.4,62,30.04,6.2,ENE,4.6,-,N/A,,Scattered Clouds,70,2013-02-16 17:50:00
7:20 PM,50.0,37.4,62,30.04,6.2,ENE,5.8,-,N/A,,Scattered Clouds,60,2013-02-16 18:20:00
7:50 PM,50.0,37.4,62,30.04,6.2,NNE,4.6,-,N/A,,Scattered Clouds,20,2013-02-16 18:50:00
8:20 PM,50.0,37.4,62,30.04,6.2,North,4.6,-,N/A,,Mostly Cloudy,350,2013-02-16 19:20:00
8:50 PM,50.0,37.4,62,30.04,6.2,North,5.8,-,N/A,,Mostly Cloudy,350,2013-02-16 19:50:00
9:20 PM,50.0,37.4,62,30.04,6.2,North,4.6,-,N/A,,Mostly Cloudy,10,2013-02-16 20:20:00
9:50 PM,48.2,37.4,66,30.04,6.2,North,3.5,-,N/A,,Scattered Clouds,350,2013-02-16 20:50:00
10:20 PM,48.2,37.4,66,30.04,6.2,North,4.6,-,N/A,,Scattered Clouds,360,2013-02-16 21:20:00
10:50 PM,48.2,37.4,66,30.04,6.2,North,4.6,-,N/A,,Scattered Clouds,360,2013-02-16 21:50:00
11:20 PM,48.2,35.6,62,30.04,6.2,NNE,4.6,-,N/A,,Scattered Clouds,30,2013-02-16 22:20:00
11:50 PM,46.4,35.6,66,30.04,6.2,NNE,4.6,-,N/A,,Scattered Clouds,30,2013-02-16 22:50:00